EDT,Max TemperatureF,Mean TemperatureF,Min TemperatureF,Max Dew PointF,MeanDew PointF,Min DewpointF,Max Humidity, Mean Humidity, Min Humidity, Max Sea Level PressureIn, Mean Sea Level PressureIn, Min Sea Level PressureIn, Max VisibilityMiles, Mean VisibilityMiles, Min VisibilityMiles, Max Wind SpeedMPH, Mean Wind SpeedMPH, Max Gust SpeedMPH,PrecipitationIn, CloudCover, Events, WindDirDegrees
2013-7-1,78,62,47,48,45,40,87,53,29,30.14,30.09,30.03,10,10,10,15,5,22,0.00,0,,54
2013-7-2,69,60,52,58,49,38,87,66,48,30.14,30.11,30.08,10,10,7,8,2,17,0.01,7,Rain,22
2013-7-3,77,64,52,66,56,45,94,75,55,30.12,30.08,30.03,10,9,2,10,3,,0.23,5,Rain,160
2013-7-4,75,66,57,63,59,55,97,78,51,30.13,30.09,30.06,10,7,0,13,3,17,0.05,5,Fog,220
2013-7-5,82,69,56,63,58,55,96,70,41,30.12,30.08,30.04,10,8,1,9,2,16,0.00,1,,226
2013-7-6,84,71,58,66,60,55,96,68,37,30.10,30.05,29.98,10,8,2,9,2,,0.00,1,,227
2013-7-7,84,75,66,67,63,55,95,68,37,30.04,29.99,29.96,10,10,5,12,4,18,0.00,3,Rain,235
2013-7-8,73,70,68,72,70,63,100,96,76,30.01,29.98,29.95,10,6,2,13,5,18,0.36,7,Rain,212
2013-7-9,83,74,65,72,68,62,100,88,48,30.01,29.95,29.84,10,8,1,12,4,21,0.07,6,Rain,223
2013-7-10,76,67,57,72,60,49,94,70,43,29.99,29.86,29.79,10,9,5,16,9,28,0.00,3,,290
2013-7-11,79,66,52,59,50,39,97,61,24,30.10,30.06,30.00,10,10,5,12,3,20,0.00,1,,336
2013-7-12,81,66,51,57,50,41,95,61,25,30.19,30.15,30.11,10,10,10,8,2,,0.00,0,,117
2013-7-13,83,68,53,61,54,47,96,63,28,30.22,30.19,30.15,10,10,7,10,2,16,0.00,1,,163
2013-7-14,88,72,57,66,59,55,94,64,33,30.28,30.25,30.22,10,10,10,9,2,,0.00,1,,186
2013-7-15,90,78,65,72,65,61,94,66,37,30.31,30.28,30.25,10,10,5,8,1,,0.00,3,,287
2013-7-16,91,80,68,72,67,64,95,68,41,30.32,30.28,30.26,10,9,3,14,4,20,0.00,2,,236
2013-7-17,93,82,71,72,66,61,91,60,34,30.29,30.24,30.17,10,10,5,17,7,23,0.00,1,,263
2013-7-18,93,81,69,72,65,59,95,59,32,30.18,30.07,29.92,10,9,2,18,6,25,0.00,1,,230
2013-7-19,91,80,68,69,66,60,88,58,36,29.92,29.79,29.70,10,10,10,22,11,38,0.01,3,Rain,247
2013-7-20,82,71,59,65,54,43,92,60,27,29.99,29.87,29.77,10,10,10,15,5,29,0.00,2,Rain,303
2013-7-21,78,64,50,54,46,36,86,52,24,30.05,29.99,29.94,10,10,10,9,2,,0.00,3,,97
2013-7-22,83,72,60,62,59,52,90,63,44,29.97,29.85,29.74,10,10,10,14,3,18,0.00,4,Rain,205
2013-7-23,72,62,53,68,54,43,93,65,45,29.96,29.79,29.68,10,10,5,20,8,30,0.00,5,Rain,324
2013-7-24,70,56,43,46,41,37,93,58,30,30.07,30.03,29.96,10,10,10,8,3,21,0.00,0,,32
2013-7-25,77,61,45,50,45,40,92,57,26,30.11,30.07,30.04,10,10,10,10,3,20,0.00,1,,213
2013-7-26,70,64,59,60,55,41,95,75,46,30.05,29.98,29.87,10,10,5,14,4,23,0.16,7,Rain,191
2013-7-27,67,60,52,62,54,45,96,79,60,29.87,29.84,29.81,10,8,0,16,4,22,0.01,7,Fog,287
2013-7-28,65,56,47,54,49,43,96,79,45,29.92,29.85,29.79,10,10,4,18,5,24,0.02,7,Rain,245
2013-7-29,67,60,52,54,52,48,95,77,51,30.19,30.07,29.92,10,9,2,14,7,21,0.01,6,Rain,294
2013-7-30,77,61,45,55,48,38,97,67,25,30.24,30.18,30.12,10,8,0,8,2,,0.00,2,Fog,215
2013-7-31,68,63,58,64,60,53,96,90,76,30.13,30.04,29.92,10,7,2,8,1,,0.71,7,Rain,142